TimeEST,TemperatureF,Dew PointF,Humidity,Sea Level PressureIn,VisibilityMPH,Wind Direction,Wind SpeedMPH,Gust SpeedMPH,PrecipitationIn,Events,Conditions,WindDirDegrees,DateUTC
12:15 AM,44.6,44.6,100,30.01,5.0,East,5.8,-,0.03,,Overcast,100,2013-11-06 05:15:00
12:35 AM,44.6,44.6,100,29.99,4.0,East,5.8,-,0.07,,Overcast,100,2013-11-06 05:35:00
12:55 AM,44.6,44.6,100,29.98,3.0,ESE,5.8,-,0.09,,Overcast,110,2013-11-06 05:55:00
1:15 AM,46.4,46.4,100,29.96,3.0,ESE,5.8,-,0.01,,Overcast,120,2013-11-06 06:15:00
1:35 AM,46.4,44.6,93,29.94,3.0,SE,9.2,-,0.02,,Overcast,140,2013-11-06 06:35:00
1:55 AM,46.4,46.4,100,29.93,3.0,SE,10.4,-,0.02,,Mostly Cloudy,140,2013-11-06 06:55:00
2:15 AM,46.4,46.4,100,29.92,3.0,SSE,10.4,-,0.02,,Mostly Cloudy,150,2013-11-06 07:15:00
2:35 AM,46.4,46.4,100,29.91,4.0,SSE,9.2,-,0.03,,Mostly Cloudy,150,2013-11-06 07:35:00
2:55 AM,48.2,48.2,100,29.91,5.0,SSE,9.2,-,0.03,,Overcast,150,2013-11-06 07:55:00
3:15 AM,46.4,46.4,100,29.89,3.0,SE,9.2,-,0.01,,Overcast,130,2013-11-06 08:15:00
3:35 AM,46.4,46.4,100,29.88,2.5,SE,8.1,-,0.02,,Overcast,140,2013-11-06 08:35:00
3:55 AM,46.4,46.4,100,29.87,4.0,SE,9.2,-,0.05,,Overcast,140,2013-11-06 08:55:00
4:15 AM,46.4,46.4,100,29.85,5.0,SE,10.4,-,0.05,,Overcast,140,2013-11-06 09:15:00
4:35 AM,46.4,46.4,100,29.84,4.0,SSE,10.4,-,0.07,,Overcast,150,2013-11-06 09:35:00
4:55 AM,46.4,46.4,100,29.83,4.0,SE,11.5,-,0.07,,Overcast,140,2013-11-06 09:55:00
5:15 AM,46.4,46.4,100,29.81,4.0,SE,12.7,-,0.01,,Overcast,140,2013-11-06 10:15:00
5:35 AM,46.4,46.4,100,29.80,4.0,SSE,11.5,-,0.01,,Overcast,150,2013-11-06 10:35:00
5:55 AM,46.4,46.4,100,29.79,3.0,SSE,11.5,-,0.01,,Overcast,150,2013-11-06 10:55:00
6:15 AM,46.4,46.4,100,29.78,3.0,SSE,8.1,-,N/A,,Overcast,160,2013-11-06 11:15:00
6:35 AM,48.2,48.2,100,29.77,4.0,SSE,10.4,-,N/A,,Overcast,150,2013-11-06 11:35:00
6:55 AM,48.2,48.2,100,29.75,4.0,SSE,8.1,-,0.01,,Overcast,150,2013-11-06 11:55:00
7:15 AM,48.2,46.4,93,29.74,4.0,SSE,8.1,-,N/A,,Overcast,160,2013-11-06 12:15:00
7:35 AM,48.2,46.4,93,29.74,4.0,SSE,9.2,-,0.01,,Overcast,160,2013-11-06 12:35:00
7:55 AM,48.2,46.4,93,29.73,2.5,SSE,6.9,-,0.01,,Overcast,160,2013-11-06 12:55:00
8:15 AM,48.2,48.2,100,29.72,3.0,SSE,8.1,-,N/A,,Overcast,160,2013-11-06 13:15:00
8:35 AM,48.2,48.2,100,29.70,3.0,SSE,10.4,-,0.01,,Overcast,150,2013-11-06 13:35:00
8:55 AM,48.2,48.2,100,29.70,5.0,SSE,8.1,-,0.02,,Overcast,160,2013-11-06 13:55:00
9:15 AM,48.2,48.2,100,29.69,8.0,South,8.1,-,N/A,,Overcast,170,2013-11-06 14:15:00
9:35 AM,48.2,48.2,100,29.68,9.0,South,8.1,-,0.01,,Overcast,170,2013-11-06 14:35:00
9:55 AM,48.2,48.2,100,29.67,8.0,South,6.9,-,0.01,,Overcast,170,2013-11-06 14:55:00
10:15 AM,50.0,50.0,100,29.67,8.0,South,9.2,-,0.01,,Overcast,170,2013-11-06 15:15:00
10:35 AM,50.0,50.0,100,29.65,10.0,South,11.5,-,0.02,,Overcast,170,2013-11-06 15:35:00
10:55 AM,50.0,50.0,100,29.65,10.0,South,9.2,-,0.02,,Overcast,170,2013-11-06 15:55:00
11:15 AM,48.2,48.2,100,29.65,1.8,NW,12.7,-,0.02,,Overcast,310,2013-11-06 16:15:00
11:35 AM,44.6,44.6,100,29.65,2.0,WNW,10.4,-,0.04,,Overcast,300,2013-11-06 16:35:00
11:55 AM,44.6,44.6,100,29.64,5.0,NW,9.2,-,0.05,,Overcast,310,2013-11-06 16:55:00
12:15 PM,44.6,44.6,100,29.64,8.0,WNW,10.4,-,0.02,,Overcast,290,2013-11-06 17:15:00
12:35 PM,42.8,42.8,100,29.64,10.0,WNW,12.7,18.4,0.06,,Overcast,290,2013-11-06 17:35:00
12:55 PM,42.8,41.0,93,29.63,9.0,NW,10.4,-,0.10,,Overcast,310,2013-11-06 17:55:00
1:15 PM,42.8,42.8,100,29.61,10.0,WNW,10.4,18.4,0.02,,Overcast,300,2013-11-06 18:15:00
1:35 PM,42.8,42.8,100,29.60,9.0,WNW,15.0,-,0.03,,Overcast,300,2013-11-06 18:35:00
1:55 PM,41.0,39.2,93,29.61,6.0,WNW,11.5,18.4,0.04,,Overcast,300,2013-11-06 18:55:00
2:15 PM,41.0,41.0,100,29.62,5.0,WNW,16.1,19.6,0.02,,Overcast,290,2013-11-06 19:15:00
2:35 PM,41.0,41.0,100,29.61,9.0,WNW,17.3,21.9,0.04,,Overcast,300,2013-11-06 19:35:00
2:55 PM,41.0,41.0,100,29.62,10.0,WNW,18.4,25.3,0.05,,Overcast,300,2013-11-06 19:55:00
3:15 PM,39.2,39.2,100,29.63,10.0,WNW,17.3,27.6,N/A,,Overcast,300,2013-11-06 20:15:00
3:35 PM,39.2,37.4,93,29.64,10.0,WNW,13.8,25.3,N/A,,Overcast,300,2013-11-06 20:35:00
3:55 PM,39.2,39.2,100,29.66,10.0,WNW,17.3,25.3,N/A,,Overcast,300,2013-11-06 20:55:00
4:15 PM,39.2,39.2,100,29.67,10.0,NW,18.4,27.6,N/A,,Overcast,310,2013-11-06 21:15:00
4:35 PM,39.2,39.2,100,29.68,10.0,NW,17.3,29.9,N/A,,Overcast,310,2013-11-06 21:35:00
4:55 PM,39.2,37.4,93,29.70,10.0,NW,16.1,27.6,N/A,,Overcast,320,2013-11-06 21:55:00
5:15 PM,39.2,39.2,100,29.71,8.0,NW,20.7,26.5,N/A,,Overcast,310,2013-11-06 22:15:00
5:35 PM,39.2,37.4,93,29.73,10.0,NW,19.6,25.3,N/A,,Overcast,310,2013-11-06 22:35:00
5:55 PM,39.2,37.4,93,29.74,10.0,NW,19.6,25.3,N/A,,Overcast,320,2013-11-06 22:55:00
6:15 PM,39.2,37.4,93,29.76,10.0,NW,15.0,-,N/A,,Overcast,310,2013-11-06 23:15:00
6:35 PM,37.4,35.6,93,29.78,9.0,WNW,17.3,25.3,0.01,,Overcast,300,2013-11-06 23:35:00
6:55 PM,37.4,35.6,93,29.78,10.0,WNW,17.3,27.6,0.02,,Overcast,290,2013-11-06 23:55:00
7:15 PM,37.4,37.4,100,29.79,10.0,WNW,20.7,25.3,N/A,,Overcast,290,2013-11-07 00:15:00
7:35 PM,37.4,35.6,93,29.81,10.0,WNW,16.1,24.2,N/A,,Overcast,290,2013-11-07 00:35:00
7:55 PM,37.4,35.6,93,29.82,10.0,WNW,15.0,20.7,N/A,,Overcast,290,2013-11-07 00:55:00
8:15 PM,37.4,35.6,93,29.83,10.0,WNW,13.8,23.0,N/A,,Overcast,290,2013-11-07 01:15:00
8:35 PM,35.6,35.6,100,29.84,10.0,West,11.5,19.6,N/A,,Overcast,280,2013-11-07 01:35:00
8:55 PM,35.6,35.6,100,29.84,7.0,West,15.0,23.0,N/A,,Overcast,280,2013-11-07 01:55:00
9:15 PM,35.6,35.6,100,29.86,10.0,WNW,12.7,19.6,N/A,,Overcast,290,2013-11-07 02:15:00
9:35 PM,35.6,35.6,100,29.87,10.0,West,12.7,20.7,N/A,,Overcast,280,2013-11-07 02:35:00
9:55 PM,35.6,35.6,100,29.87,10.0,West,13.8,-,N/A,,Overcast,280,2013-11-07 02:55:00
10:15 PM,33.8,33.8,100,29.87,6.0,West,13.8,20.7,N/A,,Overcast,280,2013-11-07 03:15:00
10:35 PM,33.8,33.8,100,29.88,10.0,WNW,11.5,-,N/A,,Overcast,290,2013-11-07 03:35:00
10:55 PM,33.8,33.8,100,29.89,10.0,West,11.5,-,N/A,,Overcast,270,2013-11-07 03:55:00
11:15 PM,33.8,33.8,100,29.89,10.0,WSW,9.2,-,N/A,,Overcast,250,2013-11-07 04:15:00
11:35 PM,33.8,33.8,100,29.90,10.0,WSW,9.2,-,N/A,,Overcast,240,2013-11-07 04:35:00
11:55 PM,33.8,33.8,100,29.90,10.0,WSW,6.9,-,N/A,,Overcast,250,2013-11-07 04:55:00